Year,Month,Day,Hour,Minute,Value (Times are PST for temperature in C)
2014,08,24,00,00,17.00
2014,08,24,00,01,17.00
2014,08,24,00,02,17.00
2014,08,24,00,03,17.00
2014,08,24,00,04,17.10
2014,08,24,00,05,17.10
2014,08,24,00,06,17.10
2014,08,24,00,07,17.10
2014,08,24,00,08,17.10
2014,08,24,00,09,17.10
2014,08,24,00,10,17.10
2014,08,24,00,11,17.10
2014,08,24,00,12,17.10
2014,08,24,00,13,17.00
2014,08,24,00,14,17.00
2014,08,24,00,15,17.00
2014,08,24,00,16,17.00
2014,08,24,00,17,17.00
2014,08,24,00,18,17.00
2014,08,24,00,19,16.90
2014,08,24,00,20,16.90
2014,08,24,00,21,16.80
2014,08,24,00,22,16.80
2014,08,24,00,23,16.80
2014,08,24,00,24,16.80
2014,08,24,00,25,16.70
2014,08,24,00,26,16.70
2014,08,24,00,27,16.60
2014,08,24,00,28,16.60
2014,08,24,00,29,16.60
2014,08,24,00,30,16.60
2014,08,24,00,31,16.50
2014,08,24,00,32,16.50
2014,08,24,00,33,16.50
2014,08,24,00,34,16.40
2014,08,24,00,35,16.40
2014,08,24,00,36,16.40
2014,08,24,00,37,16.40
2014,08,24,00,38,16.30
2014,08,24,00,39,16.30
2014,08,24,00,40,16.30
2014,08,24,00,41,16.30
2014,08,24,00,42,16.30
2014,08,24,00,43,16.30
2014,08,24,00,44,16.20
2014,08,24,00,45,16.20
2014,08,24,00,46,16.20
2014,08,24,00,47,16.20
2014,08,24,00,48,16.20
2014,08,24,00,49,16.20
2014,08,24,00,50,16.20
2014,08,24,00,51,16.20
2014,08,24,00,52,16.20
2014,08,24,00,53,16.10
2014,08,24,00,54,16.10
2014,08,24,00,55,16.10
2014,08,24,00,56,16.10
2014,08,24,00,57,16.10
2014,08,24,00,58,16.10
2014,08,24,00,59,16.10
2014,08,24,01,00,16.10
2014,08,24,01,01,16.10
2014,08,24,01,02,16.00
2014,08,24,01,03,16.10
2014,08,24,01,04,16.10
2014,08,24,01,05,16.10
2014,08,24,01,06,16.10
2014,08,24,01,07,16.10
2014,08,24,01,08,16.10
2014,08,24,01,09,16.10
2014,08,24,01,10,16.10
2014,08,24,01,11,16.00
2014,08,24,01,12,16.00
2014,08,24,01,13,16.00
2014,08,24,01,14,16.00
2014,08,24,01,15,16.00
2014,08,24,01,16,16.00
2014,08,24,01,17,16.10
2014,08,24,01,18,16.20
2014,08,24,01,19,16.30
2014,08,24,01,20,16.40
2014,08,24,01,21,16.40
2014,08,24,01,22,16.40
2014,08,24,01,23,16.40
2014,08,24,01,24,16.40
2014,08,24,01,25,16.40
2014,08,24,01,26,16.40
2014,08,24,01,27,16.30
2014,08,24,01,28,16.30
2014,08,24,01,29,16.30
2014,08,24,01,30,16.30
2014,08,24,01,31,16.30
2014,08,24,01,32,16.30
2014,08,24,01,33,16.40
2014,08,24,01,34,16.40
2014,08,24,01,35,16.40
2014,08,24,01,36,16.40
2014,08,24,01,37,16.40
2014,08,24,01,38,16.40
2014,08,24,01,39,16.30
2014,08,24,01,40,16.30
2014,08,24,01,41,16.40
2014,08,24,01,42,16.40
2014,08,24,01,43,16.40
2014,08,24,01,44,16.40
2014,08,24,01,45,16.30
2014,08,24,01,46,16.30
2014,08,24,01,47,16.30
2014,08,24,01,48,16.30
2014,08,24,01,49,16.30
2014,08,24,01,50,16.20
2014,08,24,01,51,16.20
2014,08,24,01,52,16.20
2014,08,24,01,53,16.20
2014,08,24,01,54,16.20
2014,08,24,01,55,16.20
2014,08,24,01,56,16.20
2014,08,24,01,57,16.10
2014,08,24,01,58,16.10
2014,08,24,01,59,16.10
2014,08,24,02,00,16.10
2014,08,24,02,01,16.10
2014,08,24,02,02,16.00
2014,08,24,02,03,16.00
2014,08,24,02,04,16.00
2014,08,24,02,05,15.90
2014,08,24,02,06,15.90
2014,08,24,02,07,15.90
2014,08,24,02,08,15.90
2014,08,24,02,09,15.90
2014,08,24,02,10,15.80
2014,08,24,02,11,15.80
2014,08,24,02,12,15.80
2014,08,24,02,13,15.80
2014,08,24,02,14,15.80
2014,08,24,02,15,15.80
2014,08,24,02,16,15.70
2014,08,24,02,17,15.70
2014,08,24,02,18,15.70
2014,08,24,02,19,15.70
2014,08,24,02,20,15.70
2014,08,24,02,21,15.70
2014,08,24,02,22,15.60
2014,08,24,02,23,15.60
2014,08,24,02,24,15.60
2014,08,24,02,25,15.60
2014,08,24,02,26,15.60
2014,08,24,02,27,15.50
2014,08,24,02,28,15.50
2014,08,24,02,29,15.50
2014,08,24,02,30,15.50
2014,08,24,02,31,15.50
2014,08,24,02,32,15.50
2014,08,24,02,33,15.50
2014,08,24,02,34,15.50
2014,08,24,02,35,15.50
2014,08,24,02,36,15.40
2014,08,24,02,37,15.40
2014,08,24,02,38,15.40
2014,08,24,02,39,15.40
2014,08,24,02,40,15.40
2014,08,24,02,41,15.30
2014,08,24,02,42,15.30
2014,08,24,02,43,15.30
2014,08,24,02,44,15.30
2014,08,24,02,45,15.30
2014,08,24,02,46,15.30
2014,08,24,02,47,15.30
2014,08,24,02,48,15.30
2014,08,24,02,49,15.30
2014,08,24,02,50,15.30
2014,08,24,02,51,15.30
2014,08,24,02,52,15.30
2014,08,24,02,53,15.30
2014,08,24,02,54,15.40
2014,08,24,02,55,15.40
2014,08,24,02,56,15.40
2014,08,24,02,57,15.50
2014,08,24,02,58,15.50
2014,08,24,02,59,15.60
2014,08,24,03,00,15.60
2014,08,24,03,01,15.60
2014,08,24,03,02,15.50
2014,08,24,03,03,15.50
2014,08,24,03,04,15.50
2014,08,24,03,05,15.40
2014,08,24,03,06,15.40
2014,08,24,03,07,15.40
2014,08,24,03,08,15.40
2014,08,24,03,09,15.40
2014,08,24,03,10,15.40
2014,08,24,03,11,15.30
2014,08,24,03,12,15.30
2014,08,24,03,13,15.30
2014,08,24,03,14,15.20
2014,08,24,03,15,15.20
2014,08,24,03,16,15.20
2014,08,24,03,17,15.10
2014,08,24,03,18,15.10
2014,08,24,03,19,15.10
2014,08,24,03,20,15.10
2014,08,24,03,21,15.10
2014,08,24,03,22,15.10
2014,08,24,03,23,15.10
2014,08,24,03,24,15.10
2014,08,24,03,25,15.10
2014,08,24,03,26,15.10
2014,08,24,03,27,15.10
2014,08,24,03,28,15.10
2014,08,24,03,29,15.10
2014,08,24,03,30,15.10
2014,08,24,03,31,15.10
2014,08,24,03,32,15.10
2014,08,24,03,33,15.10
2014,08,24,03,34,15.10
2014,08,24,03,35,15.00
2014,08,24,03,36,15.00
2014,08,24,03,37,15.10
2014,08,24,03,38,15.10
2014,08,24,03,39,15.20
2014,08,24,03,40,15.20
2014,08,24,03,41,15.20
2014,08,24,03,42,15.30
2014,08,24,03,43,15.30
2014,08,24,03,44,15.30
2014,08,24,03,45,15.30
2014,08,24,03,46,15.30
2014,08,24,03,47,15.20
2014,08,24,03,48,15.20
2014,08,24,03,49,15.20
2014,08,24,03,50,15.20
2014,08,24,03,51,15.10
2014,08,24,03,52,15.10
2014,08,24,03,53,15.10
2014,08,24,03,54,15.10
2014,08,24,03,55,15.10
2014,08,24,03,56,15.10
2014,08,24,03,57,15.10
2014,08,24,03,58,15.10
2014,08,24,03,59,15.10
2014,08,24,04,00,15.10
2014,08,24,04,01,15.10
2014,08,24,04,02,15.10
2014,08,24,04,03,15.10
2014,08,24,04,04,15.00
2014,08,24,04,05,15.00
2014,08,24,04,06,14.90
2014,08,24,04,07,14.90
2014,08,24,04,08,14.80
2014,08,24,04,09,14.80
2014,08,24,04,10,14.70
2014,08,24,04,11,14.60
2014,08,24,04,12,14.60
2014,08,24,04,13,14.50
2014,08,24,04,14,14.50
2014,08,24,04,15,14.40
2014,08,24,04,16,14.40
2014,08,24,04,17,14.40
2014,08,24,04,18,14.30
2014,08,24,04,19,14.30
2014,08,24,04,20,14.30
2014,08,24,04,21,14.30
2014,08,24,04,22,14.30
2014,08,24,04,23,14.30
2014,08,24,04,24,14.30
2014,08,24,04,25,14.30
2014,08,24,04,26,14.30
2014,08,24,04,27,14.30
2014,08,24,04,28,14.30
2014,08,24,04,29,14.30
2014,08,24,04,30,14.30
2014,08,24,04,31,14.30
2014,08,24,04,32,14.30
2014,08,24,04,33,14.30
2014,08,24,04,34,14.30
2014,08,24,04,35,14.20
2014,08,24,04,36,14.20
2014,08,24,04,37,14.20
2014,08,24,04,38,14.20
2014,08,24,04,39,14.20
2014,08,24,04,40,14.10
2014,08,24,04,41,14.10
2014,08,24,04,42,14.10
2014,08,24,04,43,14.10
2014,08,24,04,44,14.00
2014,08,24,04,45,14.00
2014,08,24,04,46,13.90
2014,08,24,04,47,13.90
2014,08,24,04,48,13.80
2014,08,24,04,49,13.80
2014,08,24,04,50,13.80
2014,08,24,04,51,13.80
2014,08,24,04,52,13.80
2014,08,24,04,53,13.70
2014,08,24,04,54,13.70
2014,08,24,04,55,13.70
2014,08,24,04,56,13.70
2014,08,24,04,57,13.70
2014,08,24,04,58,13.70
2014,08,24,04,59,13.70
2014,08,24,05,00,13.70
2014,08,24,05,01,13.60
2014,08,24,05,02,13.60
2014,08,24,05,03,13.60
2014,08,24,05,04,13.60
2014,08,24,05,05,13.60
2014,08,24,05,06,13.50
2014,08,24,05,07,13.50
2014,08,24,05,08,13.50
2014,08,24,05,09,13.50
2014,08,24,05,10,13.50
2014,08,24,05,11,13.40
2014,08,24,05,12,13.40
2014,08,24,05,13,13.40
2014,08,24,05,14,13.40
2014,08,24,05,15,13.40
2014,08,24,05,16,13.40
2014,08,24,05,17,13.40
2014,08,24,05,18,13.40
2014,08,24,05,19,13.40
2014,08,24,05,20,13.40
2014,08,24,05,21,13.40
2014,08,24,05,22,13.40
2014,08,24,05,23,13.40
2014,08,24,05,24,13.40
2014,08,24,05,25,13.40
2014,08,24,05,26,13.40
2014,08,24,05,27,13.40
2014,08,24,05,28,13.40
2014,08,24,05,29,13.40
2014,08,24,05,30,13.40
2014,08,24,05,31,13.40
2014,08,24,05,32,13.40
2014,08,24,05,33,13.40
2014,08,24,05,34,13.40
2014,08,24,05,35,13.40
2014,08,24,05,36,13.40
2014,08,24,05,37,13.40
2014,08,24,05,38,13.40
2014,08,24,05,39,13.40
2014,08,24,05,40,13.30
2014,08,24,05,41,13.30
2014,08,24,05,42,13.30
2014,08,24,05,43,13.30
2014,08,24,05,44,13.30
2014,08,24,05,45,13.30
2014,08,24,05,46,13.30
2014,08,24,05,47,13.30
2014,08,24,05,48,13.30
2014,08,24,05,49,13.30
2014,08,24,05,50,13.30
2014,08,24,05,51,13.40
2014,08,24,05,52,13.40
2014,08,24,05,53,13.40
2014,08,24,05,54,13.40
2014,08,24,05,55,13.40
2014,08,24,05,56,13.30
2014,08,24,05,57,13.30
2014,08,24,05,58,13.30
2014,08,24,05,59,13.30
2014,08,24,06,00,13.30
2014,08,24,06,01,13.30
2014,08,24,06,02,13.20
2014,08,24,06,03,13.20
2014,08,24,06,04,13.20
2014,08,24,06,05,13.20
2014,08,24,06,06,13.20
2014,08,24,06,07,13.10
2014,08,24,06,08,13.10
2014,08,24,06,09,13.10
2014,08,24,06,10,13.10
2014,08,24,06,11,13.10
2014,08,24,06,12,13.10
2014,08,24,06,13,13.00
2014,08,24,06,14,13.00
2014,08,24,06,15,13.00
2014,08,24,06,16,13.00
2014,08,24,06,17,13.00
2014,08,24,06,18,12.90
2014,08,24,06,19,12.90
2014,08,24,06,20,12.90
2014,08,24,06,21,12.90
2014,08,24,06,22,12.90
2014,08,24,06,23,12.90
2014,08,24,06,24,12.90
2014,08,24,06,25,12.90
2014,08,24,06,26,13.00
2014,08,24,06,27,13.00
2014,08,24,06,28,13.00
2014,08,24,06,29,13.00
2014,08,24,06,30,13.00
2014,08,24,06,31,13.00
2014,08,24,06,32,13.00
2014,08,24,06,33,13.00
2014,08,24,06,34,13.00
2014,08,24,06,35,13.00
2014,08,24,06,36,13.00
2014,08,24,06,37,13.00
2014,08,24,06,38,13.00
2014,08,24,06,39,13.00
2014,08,24,06,40,13.00
2014,08,24,06,41,13.00
2014,08,24,06,42,13.00
2014,08,24,06,43,13.00
2014,08,24,06,44,13.00
2014,08,24,06,45,13.00
2014,08,24,06,46,13.10
2014,08,24,06,47,13.10
2014,08,24,06,48,13.10
2014,08,24,06,49,13.10
2014,08,24,06,50,13.20
2014,08,24,06,51,13.20
2014,08,24,06,52,13.20
2014,08,24,06,53,13.20
2014,08,24,06,54,13.20
2014,08,24,06,55,13.20
2014,08,24,06,56,13.20
2014,08,24,06,57,13.30
2014,08,24,06,58,13.30
2014,08,24,06,59,13.30
2014,08,24,07,00,13.30
2014,08,24,07,01,13.30
2014,08,24,07,02,13.30
2014,08,24,07,03,13.40
2014,08,24,07,04,13.40
2014,08,24,07,05,13.40
2014,08,24,07,06,13.50
2014,08,24,07,07,13.50
2014,08,24,07,08,13.50
2014,08,24,07,09,13.60
2014,08,24,07,10,13.60
2014,08,24,07,11,13.70
2014,08,24,07,12,13.70
2014,08,24,07,13,13.70
2014,08,24,07,14,13.70
2014,08,24,07,15,13.70
2014,08,24,07,16,13.70
2014,08,24,07,17,13.80
2014,08,24,07,18,13.80
2014,08,24,07,19,13.80
2014,08,24,07,20,13.80
2014,08,24,07,21,13.90
2014,08,24,07,22,13.90
2014,08,24,07,23,14.00
2014,08,24,07,24,14.00
2014,08,24,07,25,14.00
2014,08,24,07,26,14.10
2014,08,24,07,27,14.20
2014,08,24,07,28,14.20
2014,08,24,07,29,14.20
2014,08,24,07,30,14.30
2014,08,24,07,31,14.30
2014,08,24,07,32,14.30
2014,08,24,07,33,14.40
2014,08,24,07,34,14.40
2014,08,24,07,35,14.40
2014,08,24,07,36,14.40
2014,08,24,07,37,14.50
2014,08,24,07,38,14.50
2014,08,24,07,39,14.50
2014,08,24,07,40,14.60
2014,08,24,07,41,14.60
2014,08,24,07,42,14.60
2014,08,24,07,43,14.70
2014,08,24,07,44,14.70
2014,08,24,07,45,14.70
2014,08,24,07,46,14.70
2014,08,24,07,47,14.80
2014,08,24,07,48,14.80
2014,08,24,07,49,14.90
2014,08,24,07,50,15.00
2014,08,24,07,51,15.00
2014,08,24,07,52,15.10
2014,08,24,07,53,15.20
2014,08,24,07,54,15.20
2014,08,24,07,55,15.30
2014,08,24,07,56,15.30
2014,08,24,07,57,15.40
2014,08,24,07,58,15.40
2014,08,24,07,59,15.50
2014,08,24,08,00,15.60
2014,08,24,08,01,15.60
2014,08,24,08,02,15.70
2014,08,24,08,03,15.70
2014,08,24,08,04,15.70
2014,08,24,08,05,15.70
2014,08,24,08,06,15.70
2014,08,24,08,07,15.70
2014,08,24,08,08,15.60
2014,08,24,08,09,15.60
2014,08,24,08,10,15.60
2014,08,24,08,11,15.60
2014,08,24,08,12,15.70
2014,08,24,08,13,15.70
2014,08,24,08,14,15.70
2014,08,24,08,15,15.80
2014,08,24,08,16,15.80
2014,08,24,08,17,15.80
2014,08,24,08,18,15.80
2014,08,24,08,19,15.80
2014,08,24,08,20,15.80
2014,08,24,08,21,15.90
2014,08,24,08,22,15.90
2014,08,24,08,23,15.90
2014,08,24,08,24,15.90
2014,08,24,08,25,16.00
2014,08,24,08,26,16.00
2014,08,24,08,27,16.10
2014,08,24,08,28,16.10
2014,08,24,08,29,16.20
2014,08,24,08,30,16.30
2014,08,24,08,31,16.30
2014,08,24,08,32,16.30
2014,08,24,08,33,16.40
2014,08,24,08,34,16.40
2014,08,24,08,35,16.50
2014,08,24,08,36,16.60
2014,08,24,08,37,16.70
2014,08,24,08,38,16.80
2014,08,24,08,39,16.80
2014,08,24,08,40,16.90
2014,08,24,08,41,16.90
2014,08,24,08,42,16.90
2014,08,24,08,43,16.90
2014,08,24,08,44,17.00
2014,08,24,08,45,17.00
2014,08,24,08,46,17.10
2014,08,24,08,47,17.20
2014,08,24,08,48,17.20
2014,08,24,08,49,17.30
2014,08,24,08,50,17.30
2014,08,24,08,51,17.40
2014,08,24,08,52,17.40
2014,08,24,08,53,17.50
2014,08,24,08,54,17.50
2014,08,24,08,55,17.50
2014,08,24,08,56,17.60
2014,08,24,08,57,17.60
2014,08,24,08,58,17.70
2014,08,24,08,59,17.70
2014,08,24,09,00,17.80
2014,08,24,09,01,17.80
2014,08,24,09,02,17.90
2014,08,24,09,03,17.90
2014,08,24,09,04,18.00
2014,08,24,09,05,18.00
2014,08,24,09,06,18.10
2014,08,24,09,07,18.10
2014,08,24,09,08,18.10
2014,08,24,09,09,18.10
2014,08,24,09,10,18.20
2014,08,24,09,11,18.20
2014,08,24,09,12,18.20
2014,08,24,09,13,18.20
2014,08,24,09,14,18.30
2014,08,24,09,15,18.30
2014,08,24,09,16,18.30
2014,08,24,09,17,18.40
2014,08,24,09,18,18.40
2014,08,24,09,19,18.40
2014,08,24,09,20,18.40
2014,08,24,09,21,18.40
2014,08,24,09,22,18.40
2014,08,24,09,23,18.50
2014,08,24,09,24,18.50
2014,08,24,09,25,18.60
2014,08,24,09,26,18.60
2014,08,24,09,27,18.60
2014,08,24,09,28,18.60
2014,08,24,09,29,18.60
2014,08,24,09,30,18.60
2014,08,24,09,31,18.60
2014,08,24,09,32,18.60
2014,08,24,09,33,18.70
2014,08,24,09,34,18.70
2014,08,24,09,35,18.70
2014,08,24,09,36,18.80
2014,08,24,09,37,18.80
2014,08,24,09,38,18.80
2014,08,24,09,39,18.80
2014,08,24,09,40,18.80
2014,08,24,09,41,18.80
2014,08,24,09,42,18.80
2014,08,24,09,43,18.90
2014,08,24,09,44,18.90
2014,08,24,09,45,18.90
2014,08,24,09,46,18.90
2014,08,24,09,47,18.90
2014,08,24,09,48,19.00
2014,08,24,09,49,19.00
2014,08,24,09,50,18.90
2014,08,24,09,51,19.00
2014,08,24,09,52,19.00
2014,08,24,09,53,19.10
2014,08,24,09,54,19.20
2014,08,24,09,55,19.20
2014,08,24,09,56,19.30
2014,08,24,09,57,19.30
2014,08,24,09,58,19.30
2014,08,24,09,59,19.40
2014,08,24,10,00,19.50
2014,08,24,10,01,19.60
2014,08,24,10,02,19.60
2014,08,24,10,03,19.50
2014,08,24,10,04,19.50
2014,08,24,10,05,19.50
2014,08,24,10,06,19.50
2014,08,24,10,07,19.60
2014,08,24,10,08,19.60
2014,08,24,10,09,19.60
2014,08,24,10,10,19.60
2014,08,24,10,11,19.60
2014,08,24,10,12,19.60
2014,08,24,10,13,19.70
2014,08,24,10,14,19.70
2014,08,24,10,15,19.80
2014,08,24,10,16,19.80
2014,08,24,10,17,19.80
2014,08,24,10,18,19.80
2014,08,24,10,19,19.70
2014,08,24,10,20,19.70
2014,08,24,10,21,19.70
2014,08,24,10,22,19.80
2014,08,24,10,23,19.90
2014,08,24,10,24,19.90
2014,08,24,10,25,20.00
2014,08,24,10,26,20.10
2014,08,24,10,27,20.10
2014,08,24,10,28,20.20
2014,08,24,10,29,20.30
2014,08,24,10,30,20.30
2014,08,24,10,31,20.40
2014,08,24,10,32,20.60
2014,08,24,10,33,20.70
2014,08,24,10,34,20.80
2014,08,24,10,35,20.90
2014,08,24,10,36,20.80
2014,08,24,10,37,20.80
2014,08,24,10,38,20.70
2014,08,24,10,39,20.70
2014,08,24,10,40,20.70
2014,08,24,10,41,20.70
2014,08,24,10,42,20.80
2014,08,24,10,43,20.80
2014,08,24,10,44,20.90
2014,08,24,10,45,21.00
2014,08,24,10,46,20.90
2014,08,24,10,47,20.90
2014,08,24,10,48,20.90
2014,08,24,10,49,20.90
2014,08,24,10,50,20.90
2014,08,24,10,51,20.90
2014,08,24,10,52,21.00
2014,08,24,10,53,21.10
2014,08,24,10,54,21.20
2014,08,24,10,55,21.30
2014,08,24,10,56,21.30
2014,08,24,10,57,21.30
2014,08,24,10,58,21.40
2014,08,24,10,59,21.50
2014,08,24,11,00,21.50
2014,08,24,11,01,21.50
2014,08,24,11,02,21.50
2014,08,24,11,03,21.60
2014,08,24,11,04,21.60
2014,08,24,11,05,21.60
2014,08,24,11,06,21.70
2014,08,24,11,07,21.80
2014,08,24,11,08,21.80
2014,08,24,11,09,21.90
2014,08,24,11,10,22.00
2014,08,24,11,11,22.10
2014,08,24,11,12,22.20
2014,08,24,11,13,22.30
2014,08,24,11,14,22.40
2014,08,24,11,15,22.50
2014,08,24,11,16,22.60
2014,08,24,11,17,22.60
2014,08,24,11,18,22.60
2014,08,24,11,19,22.40
2014,08,24,11,20,22.40
2014,08,24,11,21,22.30
2014,08,24,11,22,22.30
2014,08,24,11,23,22.30
2014,08,24,11,24,22.30
2014,08,24,11,25,22.40
2014,08,24,11,26,22.40
2014,08,24,11,27,22.50
2014,08,24,11,28,22.60
2014,08,24,11,29,22.70
2014,08,24,11,30,22.70
2014,08,24,11,31,22.70
2014,08,24,11,32,22.70
2014,08,24,11,33,22.80
2014,08,24,11,34,22.80
2014,08,24,11,35,22.80
2014,08,24,11,36,22.80
2014,08,24,11,37,22.70
2014,08,24,11,38,22.70
2014,08,24,11,39,22.70
2014,08,24,11,40,22.70
2014,08,24,11,41,22.70
2014,08,24,11,42,22.70
2014,08,24,11,43,22.70
2014,08,24,11,44,22.70
2014,08,24,11,45,22.70
2014,08,24,11,46,22.70
2014,08,24,11,47,22.70
2014,08,24,11,48,22.80
2014,08,24,11,49,22.80
2014,08,24,11,50,22.80
2014,08,24,11,51,22.80
2014,08,24,11,52,22.70
2014,08,24,11,53,22.80
2014,08,24,11,54,22.80
2014,08,24,11,55,22.80
2014,08,24,11,56,22.80
2014,08,24,11,57,22.90
2014,08,24,11,58,22.90
2014,08,24,11,59,22.90
2014,08,24,12,00,23.00
2014,08,24,12,01,23.00
2014,08,24,12,02,23.10
2014,08,24,12,03,23.10
2014,08,24,12,04,23.20
2014,08,24,12,05,23.20
2014,08,24,12,06,23.20
2014,08,24,12,07,23.30
2014,08,24,12,08,23.40
2014,08,24,12,09,23.50
2014,08,24,12,10,23.60
2014,08,24,12,11,23.60
2014,08,24,12,12,23.70
2014,08,24,12,13,23.70
2014,08,24,12,14,23.80
2014,08,24,12,15,23.80
2014,08,24,12,16,23.90
2014,08,24,12,17,23.90
2014,08,24,12,18,23.90
2014,08,24,12,19,24.00
2014,08,24,12,20,24.00
2014,08,24,12,21,24.00
2014,08,24,12,22,24.00
2014,08,24,12,23,24.10
2014,08,24,12,24,24.10
2014,08,24,12,25,24.10
2014,08,24,12,26,24.10
2014,08,24,12,27,24.10
2014,08,24,12,28,24.10
2014,08,24,12,29,24.10
2014,08,24,12,30,24.20
2014,08,24,12,31,24.20
2014,08,24,12,32,24.20
2014,08,24,12,33,24.20
2014,08,24,12,34,24.20
2014,08,24,12,35,24.20
2014,08,24,12,36,24.20
2014,08,24,12,37,24.20
2014,08,24,12,38,24.30
2014,08,24,12,39,24.40
2014,08,24,12,40,24.40
2014,08,24,12,41,24.40
2014,08,24,12,42,24.50
2014,08,24,12,43,24.50
2014,08,24,12,44,24.60
2014,08,24,12,45,24.60
2014,08,24,12,46,24.60
2014,08,24,12,47,24.70
2014,08,24,12,48,24.70
2014,08,24,12,49,24.80
2014,08,24,12,50,24.80
2014,08,24,12,51,24.80
2014,08,24,12,52,24.80
2014,08,24,12,53,24.80
2014,08,24,12,54,24.90
2014,08,24,12,55,24.90
2014,08,24,12,56,25.00
2014,08,24,12,57,25.10
2014,08,24,12,58,25.10
2014,08,24,12,59,25.20
2014,08,24,13,00,25.20
2014,08,24,13,01,25.20
2014,08,24,13,02,25.20
2014,08,24,13,03,25.20
2014,08,24,13,04,25.20
2014,08,24,13,05,25.20
2014,08,24,13,06,25.20
2014,08,24,13,07,25.20
2014,08,24,13,08,25.20
2014,08,24,13,09,25.20
2014,08,24,13,10,25.20
2014,08,24,13,11,25.20
2014,08,24,13,12,25.20
2014,08,24,13,13,25.20
2014,08,24,13,14,25.20
2014,08,24,13,15,25.10
2014,08,24,13,16,25.20
2014,08,24,13,17,25.20
2014,08,24,13,18,25.20
2014,08,24,13,19,25.30
2014,08,24,13,20,25.30
2014,08,24,13,21,25.30
2014,08,24,13,22,25.30
2014,08,24,13,23,25.40
2014,08,24,13,24,25.40
2014,08,24,13,25,25.40
2014,08,24,13,26,25.30
2014,08,24,13,27,25.20
2014,08,24,13,28,25.20
2014,08,24,13,29,25.10
2014,08,24,13,30,25.10
2014,08,24,13,31,25.10
2014,08,24,13,32,25.10
2014,08,24,13,33,25.10
2014,08,24,13,34,25.10
2014,08,24,13,35,25.20
2014,08,24,13,36,25.20
2014,08,24,13,37,25.20
2014,08,24,13,38,25.20
2014,08,24,13,39,25.10
2014,08,24,13,40,25.10
2014,08,24,13,41,25.20
2014,08,24,13,42,25.20
2014,08,24,13,43,25.20
2014,08,24,13,44,25.20
2014,08,24,13,45,25.20
2014,08,24,13,46,25.20
2014,08,24,13,47,25.20
2014,08,24,13,48,25.20
2014,08,24,13,49,25.20
2014,08,24,13,50,25.20
2014,08,24,13,51,25.30
2014,08,24,13,52,25.30
2014,08,24,13,53,25.30
2014,08,24,13,54,25.30
2014,08,24,13,55,25.30
2014,08,24,13,56,25.30
2014,08,24,13,57,25.20
2014,08,24,13,58,25.20
2014,08,24,13,59,25.20
2014,08,24,14,00,25.30
2014,08,24,14,01,25.30
2014,08,24,14,02,25.30
2014,08,24,14,03,25.30
2014,08,24,14,04,25.30
2014,08,24,14,05,25.30
2014,08,24,14,06,25.30
2014,08,24,14,07,25.30
2014,08,24,14,08,25.30
2014,08,24,14,09,25.30
2014,08,24,14,10,25.40
2014,08,24,14,11,25.40
2014,08,24,14,12,25.50
2014,08,24,14,13,25.40
2014,08,24,14,14,25.40
2014,08,24,14,15,25.40
2014,08,24,14,16,25.40
2014,08,24,14,17,25.40
2014,08,24,14,18,25.40
2014,08,24,14,19,25.50
2014,08,24,14,20,25.50
2014,08,24,14,21,25.60
2014,08,24,14,22,25.60
2014,08,24,14,23,25.50
2014,08,24,14,24,25.40
2014,08,24,14,25,25.40
2014,08,24,14,26,25.40
2014,08,24,14,27,25.50
2014,08,24,14,28,25.60
2014,08,24,14,29,25.70
2014,08,24,14,30,25.80
2014,08,24,14,31,25.80
2014,08,24,14,32,25.90
2014,08,24,14,33,25.90
2014,08,24,14,34,25.90
2014,08,24,14,35,25.90
2014,08,24,14,36,25.80
2014,08,24,14,37,25.70
2014,08,24,14,38,25.60
2014,08,24,14,39,25.40
2014,08,24,14,40,25.30
2014,08,24,14,41,25.20
2014,08,24,14,42,25.20
2014,08,24,14,43,25.10
2014,08,24,14,44,25.10
2014,08,24,14,45,25.10
2014,08,24,14,46,25.10
2014,08,24,14,47,25.10
2014,08,24,14,48,25.10
2014,08,24,14,49,25.10
2014,08,24,14,50,25.20
2014,08,24,14,51,25.30
2014,08,24,14,52,25.40
2014,08,24,14,53,25.40
2014,08,24,14,54,25.40
2014,08,24,14,55,25.50
2014,08,24,14,56,25.50
2014,08,24,14,57,25.60
2014,08,24,14,58,25.70
2014,08,24,14,59,25.70
2014,08,24,15,00,25.80
2014,08,24,15,01,25.80
2014,08,24,15,02,25.80
2014,08,24,15,03,25.90
2014,08,24,15,04,26.00
2014,08,24,15,05,26.10
2014,08,24,15,06,26.10
2014,08,24,15,07,26.10
2014,08,24,15,08,26.20
2014,08,24,15,09,26.10
2014,08,24,15,10,26.00
2014,08,24,15,11,25.90
2014,08,24,15,12,25.80
2014,08,24,15,13,25.80
2014,08,24,15,14,25.80
2014,08,24,15,15,25.80
2014,08,24,15,16,25.80
2014,08,24,15,17,25.80
2014,08,24,15,18,25.80
2014,08,24,15,19,25.70
2014,08,24,15,20,25.60
2014,08,24,15,21,25.60
2014,08,24,15,22,25.50
2014,08,24,15,23,25.40
2014,08,24,15,24,25.40
2014,08,24,15,25,25.30
2014,08,24,15,26,25.30
2014,08,24,15,27,25.40
2014,08,24,15,28,25.40
2014,08,24,15,29,25.40
2014,08,24,15,30,25.40
2014,08,24,15,31,25.30
2014,08,24,15,32,25.30
2014,08,24,15,33,25.20
2014,08,24,15,34,25.20
2014,08,24,15,35,25.20
2014,08,24,15,36,25.20
2014,08,24,15,37,25.20
2014,08,24,15,38,25.20
2014,08,24,15,39,25.20
2014,08,24,15,40,25.20
2014,08,24,15,41,25.30
2014,08,24,15,42,25.30
2014,08,24,15,43,25.30
2014,08,24,15,44,25.30
2014,08,24,15,45,25.30
2014,08,24,15,46,25.30
2014,08,24,15,47,25.30
2014,08,24,15,48,25.30
2014,08,24,15,49,25.30
2014,08,24,15,50,25.40
2014,08,24,15,51,25.50
2014,08,24,15,52,25.60
2014,08,24,15,53,25.60
2014,08,24,15,54,25.70
2014,08,24,15,55,25.80
2014,08,24,15,56,25.90
2014,08,24,15,57,26.00
2014,08,24,15,58,26.00
2014,08,24,15,59,26.10
2014,08,24,16,00,26.20
2014,08,24,16,01,26.30
2014,08,24,16,02,26.40
2014,08,24,16,03,26.50
2014,08,24,16,04,26.70
2014,08,24,16,05,26.80
2014,08,24,16,06,26.90
2014,08,24,16,07,27.00
2014,08,24,16,08,27.00
2014,08,24,16,09,27.10
2014,08,24,16,10,27.10
2014,08,24,16,11,27.20
2014,08,24,16,12,27.20
2014,08,24,16,13,27.20
2014,08,24,16,14,27.10
2014,08,24,16,15,27.10
2014,08,24,16,16,27.20
2014,08,24,16,17,27.20
2014,08,24,16,18,27.20
2014,08,24,16,19,27.20
2014,08,24,16,20,27.20
2014,08,24,16,21,27.20
2014,08,24,16,22,27.20
2014,08,24,16,23,27.30
2014,08,24,16,24,27.30
2014,08,24,16,25,27.30
2014,08,24,16,26,27.40
2014,08,24,16,27,27.50
2014,08,24,16,28,27.60
2014,08,24,16,29,27.60
2014,08,24,16,30,27.70
2014,08,24,16,31,27.80
2014,08,24,16,32,27.90
2014,08,24,16,33,28.00
2014,08,24,16,34,28.10
2014,08,24,16,35,28.20
2014,08,24,16,36,28.20
2014,08,24,16,37,28.30
2014,08,24,16,38,28.30
2014,08,24,16,39,28.30
2014,08,24,16,40,28.40
2014,08,24,16,41,28.40
2014,08,24,16,42,28.30
2014,08,24,16,43,28.30
2014,08,24,16,44,28.30
2014,08,24,16,45,28.30
2014,08,24,16,46,28.20
2014,08,24,16,47,28.20
2014,08,24,16,48,28.10
2014,08,24,16,49,27.90
2014,08,24,16,50,27.80
2014,08,24,16,51,27.70
2014,08,24,16,52,27.60
2014,08,24,16,53,27.60
2014,08,24,16,54,27.50
2014,08,24,16,55,27.50
2014,08,24,16,56,27.40
2014,08,24,16,57,27.40
2014,08,24,16,58,27.40
2014,08,24,16,59,27.50
2014,08,24,17,00,27.50
2014,08,24,17,01,27.60
2014,08,24,17,02,27.60
2014,08,24,17,03,27.60
2014,08,24,17,04,27.70
2014,08,24,17,05,27.70
2014,08,24,17,06,27.80
2014,08,24,17,07,27.90
2014,08,24,17,08,27.90
2014,08,24,17,09,28.00
2014,08,24,17,10,28.10
2014,08,24,17,11,28.20
2014,08,24,17,12,28.30
2014,08,24,17,13,28.30
2014,08,24,17,14,28.50
2014,08,24,17,15,28.60
2014,08,24,17,16,28.60
2014,08,24,17,17,28.60
2014,08,24,17,18,28.60
2014,08,24,17,19,28.60